Location: Newark
(9.4667°S, 159.8167°E)
Time: 08:47:29
(UTC+00:00)

Courier 1B Rocket - Pass Details

Date: 27 November 2019
Orbit: 921 x 1202 km, 28.2° (Epoch: 15 December)

Event Time Altitude Azimuth Distance (km) Brightness Sun altitude
Rises 18:31:31 0° 235° (SW) 3,836 7.8 -5.0°
Reaches altitude 10° 18:34:26 10° 230° (SW) 2,835 7.2 -4.4°
Maximum altitude 18:41:03 50° 155° (SSE) 1,237 6.0 -2.9°
Drops below altitude 10° 18:47:14 10° 81° (E) 2,657 8.4 -1.4°
Sets 18:49:53 0° 75° (ENE) 3,576 9.0 -0.8°
